Flag Weather past 2 weeks in Yakutsk, Russia

Now
-24 °F

Clear.


Feels Like: -24 °F
Forecast: -27 / -14 °F
Wind: 1 mph from North

Location: Jakutsk

Current Time: Nov 21, 2014 at 5:53:27 AM

Latest Report: Nov 21, 2014 at 5:00 AM


Visibility: 10 mi

Pressure: 30.21 "Hg

Humidity: 75%

Dew point: -29 °F

Location of YakutskLocation

Historic Weather in Yakutsk — Graph

°F

Yakutsk temperature yesterday

Maximum temperature yesterday: -13 °F (at 12:00 AM)
Minimum temperature yesterday: -24 °F (at 11:30 PM)
Average temperature yesterday: -18 °F

Past Weeks' High & Low Weather Summary

 TemperatureHumidityPressure
High1 °F (Nov 8, 2:00 PM)84% (Nov 6, 11:30 AM)30.42 "Hg (Nov 6, 11:30 AM)
Low-44 °F (Nov 13, 9:30 AM)58% (Nov 13, 12:30 AM)29.36 "Hg (Nov 8, 2:00 AM)
Average-17 °F76%30.06 "Hg
* Reported Nov 6 4:00 AM — Nov 21 4:30 AM, Yakutsk, Weather by CustomWeather, © 2014

Note: Actual official high and low records may vary slightly from our data, if they occured in-between our weather recording intervals... More about our weather records

Advertising

Yakutsk weather history for previous 24 hours

 ConditionsComfort  
Time TempWeatherWind HumidityBarometerVisibility
4:30 AM
Nov 21
-26 °FClear.No wind75%30.21 "Hg10 mi
4:00 AM-26 °FClear.1 mph75%30.21 "Hg10 mi
3:30 AM-24 °FClear.3 mph68%30.21 "Hg10 mi
3:00 AM-24 °FClear.3 mph75%30.21 "Hg10 mi
2:30 AM-24 °FClear.3 mph75%30.21 "Hg10 mi
2:00 AM-24 °FClear.1 mph75%30.24 "Hg10 mi
1:30 AM-24 °FClear.1 mph68%30.24 "Hg10 mi
1:00 AM-24 °FClear.1 mph68%30.24 "Hg10 mi
12:30 AM-24 °FClear.1 mph68%30.24 "Hg10 mi
12:00 AM-24 °FClear.1 mph75%30.24 "Hg10 mi
11:30 PM
Nov 20
-24 °FClear.1 mph75%30.24 "Hg10 mi
11:00 PM-22 °FClear.1 mph68%30.24 "Hg10 mi
10:30 PM-22 °FClear.1 mph75%30.24 "Hg10 mi
10:00 PM-22 °FClear.3 mph75%30.24 "Hg10 mi
9:30 PM-22 °FClear.3 mph75%30.24 "Hg10 mi
9:00 PM-22 °FClear.3 mph75%30.24 "Hg10 mi
8:30 PM-22 °FClear.1 mph75%30.21 "Hg10 mi
8:00 PM-22 °FClear.1 mph75%30.21 "Hg10 mi
7:30 PM-22 °FClear.3 mph75%30.21 "Hg10 mi
7:00 PM-20 °FClear.3 mph75%30.21 "Hg10 mi
6:30 PM-20 °FClear.3 mph75%30.21 "Hg10 mi
6:00 PM-20 °FClear.1 mph75%30.21 "Hg10 mi
5:30 PM-20 °FClear.3 mph75%30.21 "Hg10 mi
5:00 PM-20 °FClear.3 mph75%30.21 "Hg10 mi
4:30 PM-20 °FClear.3 mph75%30.21 "Hg10 mi
4:00 PM-20 °FSunny.1 mph75%30.21 "Hg10 mi
3:30 PM-20 °FSunny.1 mph83%30.21 "Hg10 mi
3:00 PM-18 °FSunny.3 mph75%30.21 "Hg10 mi
2:30 PM-18 °FSunny.3 mph83%30.21 "Hg10 mi
2:00 PM-17 °FSunny.3 mph76%30.21 "Hg10 mi
1:30 PM-17 °FSunny.1 mph76%30.21 "Hg10 mi
1:00 PM-17 °FSunny.1 mph76%30.21 "Hg10 mi
12:30 PM-17 °FSunny.1 mph76%30.21 "Hg10 mi
12:00 PM-18 °FSunny.1 mph83%30.21 "Hg10 mi
11:30 AM-17 °FSunny.1 mph76%30.21 "Hg10 mi
11:00 AM-17 °FSunny.1 mph76%30.21 "Hg10 mi
10:00 AM-18 °FSunny.1 mph83%30.21 "Hg10 mi
9:30 AM-18 °FClear.1 mph83%30.21 "Hg10 mi
9:00 AM-17 °FClear.1 mph76%30.21 "Hg10 mi
8:30 AM-17 °FLight snow. Mostly cloudy.1 mph76%30.21 "HgN/A
8:00 AM-17 °FLight snow. Mostly cloudy.1 mph83%30.21 "HgN/A
7:30 AM-17 °FLight snow. Mostly cloudy.No wind83%30.21 "HgN/A
7:00 AM-17 °FLight snow. Mostly cloudy.No wind83%30.21 "HgN/A
6:30 AM-17 °FLight snow. Mostly cloudy.No wind83%30.18 "HgN/A
6:00 AM-17 °FLight snow. Mostly cloudy.No wind83%30.18 "HgN/A
5:30 AM-17 °FLight snow. Mostly cloudy.No wind83%30.18 "HgN/A
5:00 AM-17 °FLight snow. Mostly cloudy.No wind76%30.18 "HgN/A
Weather by CustomWeather, © 2014

See weather overviewHow to use our weather pages